sat.trackr.live / text

‹ back to catalog

STARLINK-3088

NORAD 49163 · 2021-082AK

PAYLOAD ACTIVE UNKNOWN

§ Identity

Operator
Country
US
Launch date
2021-09-14
Launch site
AFWTR
Launch vehicle
Mass (kg)
RCS (m²)

Purposes: comms

External: N2YO · Heavens-Above · Gunter

§ Orbital elements

Epoch: 2026-09-09T22:29:51.760032Z

Period
96.16 min
Inclination
70.0000°
Eccentricity
0.0003043
Mean motion
14.97520274 rev/d
Perigee alt
572.4 km
Apogee alt
576.7 km
Semi-major
6,952.7 km
B*
-4.4967e-5
RAAN
171.2721°
Arg perigee
269.1414°
Mean anomaly
90.9396°
Rev number
27,519

§ Raw data

STARLINK-30881 49163U 21082AK  26252.93740463 -.00000618  00000+0 -44967-4 0  99992 49163  70.0000 171.2721 0003043 269.1414  90.9396 14.97520274275191

JSON: /api/v1/satellites/49163 · /tle

For live sub-satellite position, see the globe view (requires WebGL).

§ Visibility from observer

Set your observer location to see the next 7 days of passes ≥ 10°. The values pass through the URL so the page stays shareable.

No JS? Fill the form by hand. The geolocation button needs JavaScript.